Regional Weather Roundup
Issued by NWS

Home | Current Version | Previous Version | Graphics & Text | Print | Product List | Glossary On
Versions: 1 2 3 4 5 6 7 8 9 10 11 12 13 14 15 16 17 18 19 20 21 22 23 24 25 26 27 28 29 30 31 32 33 34 35 36 37 38 39 40 41 42 43 44 45 46 47 48 49 50
000
ASUS43 KMKX 221800
RWRWI

WISCONSIN REGIONAL WEATHER ROUNDUP
NATIONAL WEATHER SERVICE MILWAUKEE/SULLIVAN WI
1200 PM CST MON DEC 22 2014

NOTE: "FAIR" INDICATES FEW OR NO CLOUDS BELOW 12,000 FEET WITH NO
SIGNIFICANT WEATHER AND/OR OBSTRUCTIONS TO VISIBILITY.

WIZ001-002-006>008-014>016-023>028-221900-
NORTHWEST WISCONSIN

CITY           SKY/WX    TMP DP  RH WIND       PRES   REMARKS
SUPERIOR ARPT  CLOUDY    35  34  95 CALM      29.71F FOG
ASHLAND        CLOUDY    37  33  85 S7        29.73F WCI  32
6HR MIN TEMP:  35; 6HR MAX TEMP:  37;

HAYWARD        CLOUDY    34  32  92 SE10G22   29.70F FOG     WCI  26
6HR MIN TEMP:  34; 6HR MAX TEMP:  34; 6HR PCP:  0.01;

SIREN          CLOUDY    35  34  96 SE8       29.68F FOG     WCI  28
CUMBERLAND     FOG       32  32 100 SE12      29.69F VSB 1   WCI  23
RICE LAKE      CLOUDY    34  33  96 SE10G16   29.71F FOG     WCI  26
6HR MIN TEMP:  34; 6HR MAX TEMP:  34;

CHETEK         CLOUDY    34  33  95 E9        29.71F FOG     WCI  26
LADYSMITH      CLOUDY    35  33  93 SE8       29.75F FOG     WCI  28
EAU CLAIRE     NOT AVBL
MENOMONIE      CLOUDY    36  34  92 E9        29.70F FOG     WCI  29
NEW RICHMOND   CLOUDY    35  35  99 SE10      29.66F FOG     WCI  27
OSCEOLA        CLOUDY    36  36 100 SE12      29.68F FOG     WCI  28
$$

WIZ003>005-009-010-017-018-221900-
NORTH CENTRAL WISCONSIN

CITY           SKY/WX    TMP DP  RH WIND       PRES   REMARKS
MANITOWISH WTR CLOUDY    32  32 100 SE9       29.76F FOG     WCI  24
ARBOR VITAE    CLOUDY    33  32  95 SE12      29.76F FOG     WCI  24
WOODRUFF       CLOUDY    33  32  95 SE12      29.76F FOG     WCI  24
RHINELANDER    CLOUDY    31  31 100 SE8       29.77F FOG     WCI  23
6HR MIN TEMP:  31; 6HR MAX TEMP:  31; 6HR PCP: TRACE;

EAGLE RIVER    CLOUDY    32  32 100 SE8       29.78F FOG     WCI  25
LAND O LAKES   CLOUDY    32  32  99 SE7       29.78F FOG     WCI  26
PHILLIPS       CLOUDY    32  32  99 SE10      29.74F FOG     WCI  24
6HR MIN TEMP:  32; 6HR MAX TEMP:  32;

TOMAHAWK       CLOUDY    32  31  96 CALM      29.78F FOG
MEDFORD        CLOUDY    32  31  98 SE8       29.74F FOG     WCI  25
MERRILL        CLOUDY    33  32  96 SE8       29.78F FOG     WCI  26
$$

WIZ029-030-035-036-043>047-221900-
CENTRAL WISCONSIN

CITY           SKY/WX    TMP DP  RH WIND       PRES   REMARKS
WAUSAU         CLOUDY    34  32  92 SE8       29.76F FOG     WCI  27
6HR MIN TEMP:  32; 6HR MAX TEMP:  34; 6HR PCP: TRACE;

MOSINEE        NOT AVBL
MARSHFIELD     CLOUDY    36  32  85 SE12      29.74F FOG     WCI  28
6HR MIN TEMP:  33; 6HR MAX TEMP:  36; 6HR PCP: TRACE;

STEVENS POINT  CLOUDY    33  31  93 SE6       29.79F FOG     WCI  28
WAUPACA        CLOUDY    37  32  82 SE6       29.83F HAZE    WCI  32
WAUTOMA        NOT AVBL
WISC RAPIDS    CLOUDY    37  30  75 SE8       29.77F WCI  31
6HR MIN TEMP:  34; 6HR MAX TEMP:  37; 6HR PCP: TRACE;

CAMP DOUGLAS   NOT AVBL
$$

WIZ011>013-019>022-031-037>040-048>050-221900-
NORTHEAST WISCONSIN

CITY           SKY/WX    TMP DP  RH WIND       PRES   REMARKS
ANTIGO         FOG       32  32 100 SE10      29.79F VSB 3/4 WCI  23
SHAWANO        CLOUDY    38  34  85 SE9       29.84F FOG     WCI  31
OCONTO         CLOUDY    35  34  94 SE10      29.87F WCI  28
STURGEON BAY   CLOUDY    36  28  75 SE17      29.89F WCI  25
6HR MIN TEMP:  36; 6HR MAX TEMP:  36;

GREEN BAY      CLOUDY    37  33  85 SE10      29.85F FOG     WCI  30
6HR MIN TEMP:  34; 6HR MAX TEMP:  37; 6HR PCP:  0.03;

MANITOWOC      NOT AVBL
APPLETON       CLOUDY    36  34  93 SE12      29.83F FOG     WCI  27
CLINTONVILLE   CLOUDY    36  32  87 SE8       29.82F FOG     WCI  29
OSHKOSH        CLOUDY    37  32  82 SE13      29.82F HAZE    WCI  29
6HR MIN TEMP:  33; 6HR MAX TEMP:  37; 6HR PCP: TRACE;

$$

WIZ032>034-041-042-053>061-221900-
SOUTHWEST WISCONSIN

CITY           SKY/WX    TMP DP  RH WIND       PRES   REMARKS
LA CROSSE      CLOUDY    41  32  70 SE12      29.70F
6HR MIN TEMP:  37; 6HR MAX TEMP:  41;

SPARTA         CLOUDY    39  32  77 E8        29.73F WCI  33
VIROQUA        CLOUDY    36  36 100 SE16      29.69F WCI  26
BOSCOBEL       CLOUDY    39  32  76 VRB7      29.73F WCI  34
6HR MIN TEMP:  36; 6HR MAX TEMP:  39;

PRAIRIE DU CHI CLOUDY    38  32  80 E10       29.70F WCI  30
PLATTEVILLE    CLOUDY    35  33  92 E14       29.72F WCI  26
$$

WIZ056-057-062-063-064-067-068-221900-
SOUTH CENTRAL WISCONSIN

CITY           SKY/WX    TMP DP  RH WIND       PRES   REMARKS
REEDSBURG      CLOUDY    35  32  87 E5        29.76F WCI  31
BARABOO/DELLS  CLOUDY    35  31  84 E7        29.77F HAZE    WCI  29
LONE ROCK      CLOUDY    40  31  70 E13       29.75F HAZE    WCI  32
MINERAL POINT  LGT RAIN  36  32  87 E8        29.73F WCI  29
MADISON        CLOUDY    36  29  75 E14       29.77F WCI  27
6HR MIN TEMP:  33; 6HR MAX TEMP:  36; 6HR PCP: TRACE;

MIDDLETON      CLOUDY    37  31  81 E12       29.77F WCI  29
WATERTOWN      CLOUDY    35  33  92 E9        29.80F FOG     WCI  28
MONROE         LGT SNOW  34  32  93 E12G17    29.75F WCI  25
JANESVILLE     SNOWSHWR  36  32  87 E14       29.78F WCI  27
$$

WIZ051-052-058>065-066-070>072-221900-
SOUTHEAST WISCONSIN

CITY           SKY/WX    TMP DP  RH WIND       PRES   REMARKS
MILWAUKEE      CLOUDY    37  32  82 SE14      29.84F HAZE    WCI  28
6HR MIN TEMP:  34; 6HR MAX TEMP:  37;

WAUKESHA       CLOUDY    36  30  80 E12       29.83F FOG     WCI  27
MILWAUKEE/TIMM CLOUDY    36  30  80 SE12G17   29.85F HAZE    WCI  27
RACINE         CLOUDY    37  32  82 SE10      29.85F HAZE    WCI  30
6HR MIN TEMP:  35; 6HR MAX TEMP:  37;

BURLINGTON     CLOUDY    34  31  86 E8        29.82F WCI  28
KENOSHA        CLOUDY    37  32  82 SE14      29.83F HAZE    WCI  28
6HR MIN TEMP:  33; 6HR MAX TEMP:  38;

FOND DU LAC    CLOUDY    38  32  79 SE17G23   29.82F WCI  28
6HR MIN TEMP:  33; 6HR MAX TEMP:  38; 6HR PCP: TRACE;

SHEBOYGAN      CLOUDY    36  31  82 SE13      29.86F HAZE    WCI  27
6HR MIN TEMP:  36; 6HR MAX TEMP:  37; 6HR PCP: TRACE;

WEST BEND      CLOUDY    36  32  87 SE12      29.84F WCI  27
JUNEAU         CLOUDY    35  32  90 E9        29.82F FOG     WCI  27
$$

LSZ147-162-221900-
LAKE SUPERIOR

STATION/POSITION TIME  TEMP    WIND        PRES    WAVE
                       AIR SEA DIR/SP/G            HT/PER
                 (UTC) (F)     (DEG/KT/KT) (MB)    (FT/S)
DEVILS ISLAND    1700   36     140/  7/ 10 1008.2F
PORT WING        1700   37     160/  3/  9 1007.1F
SAXON HARBOR     1700   39     160/  7/ 11 1007.8F
$$

LMZ867-665-643>646-221900-
LAKE MICHIGAN

STATION/POSITION TIME  TEMP    WIND        PRES    WAVE
                       AIR SEA DIR/SP/G            HT/PER
                 (UTC) (F)     (DEG/KT/KT) (MB)    (FT/S)
CHAMBERS ISLAND  1700   36     130/  7/ 13 1012.9F
NORTHPORT PIER   1700   36     150/ 16/ 20 1013.5F
SISTER BAY       1713          180/ 13/ 16   N/A
ALGOMA LAKESHORE 1715          200/ 19/ 22   N/A
KEWAUNEE LAKESHO 1700   35     170/ 17/ 21 1012.1F
SHEBOYGAN LAKESH 1700   36 37  130/ 16/ 18 1012.7F
PORT WASHINGTON  1740   37     150/ 15/ 17 1012.2F
MILWAUKEE LAKESH 1700   37     140/ 15/ 17   N/A
KENOSHA   LAKESH 1700   36     140/ 13/ 15 1011.5F
$$

TC  - TEMPERATURE IN CELSIUS
VSB - VISIBILITY IN STATUTE MILES
WCI - WIND CHILL INDEX
HX  - HEAT INDEX




USA.gov is the U.S. government's official web portal to all federal, state and local government web resources and services.